Weather History for LTBS - November, 2013

Change the Weather History Date:

Wednesday, November 13, 2013

  Actual Average Record
Temperature  
Mean Temperature 60 °F -  
Max Temperature 74 °F 64 °F 78 °F (2000)
Min Temperature 45 °F 46 °F 41 °F (2005)
Degree Days  
Heating Degree Days 6    
Growing Degree Days 10 (Base 50)    
Moisture  
Dew Point 45 °F    
Average Humidity 66    
Maximum Humidity 93    
Minimum Humidity 22    
Precipitation  
Precipitation 0.00 in - - ()
Sea Level Pressure  
Sea Level Pressure 30.04 in    
Wind  
Wind Speed 6 mph ()    
Max Wind Speed 9 mph    
Max Gust Speed -    
Visibility 6.1 miles    
Events      
Averages and records for this station are not official NWS values.
T = Trace of Precipitation, MM = Missing Value Source: Averaged Metar Reports

Daily Weather History Graph

Daily Weather History Graph

Search for Another Location

Airport or City:

Trip Planner

Search our weather history database for the weather conditions in past years. The results will help you decide how hot, cold, wet, or windy it might be!

Date:

Astronomy

Nov. 13, 2013 Rise Set
Actual Time 6:40 AM EET 4:57 PM EET
Civil Twilight 6:13 AM EET 5:24 PM EET
Nautical Twilight 5:42 AM EET 5:55 PM EET
Astronomical Twilight 5:11 AM EET 6:26 PM EET
Moon 2:28 PM EET (11/13) 2:19 AM EET (11/13)
Length of Visible Light 11h 11m
Length of Day
10h 16m
Waxing Gibbous, 82% of the Moon is Illuminated
Nov 13
Waxing Gibbous
Nov 17
Full
Nov 25
Last Quarter
Dec 3
New
Dec 9
First Quarter

Hourly Weather History & Observations

Time (EET) Temp. Windchill Dew Point Humidity Pressure Visibility Wind Dir Wind Speed Gust Speed Precip Events Conditions
12:20 AM 51.8 °F - 42.8 °F 71% 30.06 in - East 6.9 mph - N/A   Clear
12:50 AM 50.0 °F - 42.8 °F 76% 30.06 in - NNE 5.8 mph - N/A   Clear
1:20 AM 50.0 °F - 44.6 °F 82% 30.06 in - NE 5.8 mph - N/A   Clear
1:50 AM 48.2 °F - 42.8 °F 82% 30.06 in - NE 6.9 mph - N/A   Clear
2:00 AM 48 °F - 42 °F 74% 30.08 in 6 mi NE 6.9 mph - -  
2:20 AM 48.2 °F - 42.8 °F 82% 30.06 in - NE 5.8 mph - N/A   Clear
2:50 AM 46.4 °F 42.9 °F 41.0 °F 81% 30.06 in - NNE 6.9 mph - N/A   Clear
3:20 AM 46.4 °F 43.5 °F 41.0 °F 81% 30.06 in - NNE 5.8 mph - N/A   Clear
3:50 AM 48.2 °F - 44.6 °F 87% 30.06 in - NNE 6.9 mph - N/A   Clear
4:20 AM 48.2 °F - 42.8 °F 82% 30.06 in - East 6.9 mph - N/A   Clear
4:50 AM 48.2 °F - 42.8 °F 82% 30.06 in - ENE 6.9 mph - N/A   Clear
5:00 AM 49 °F - 43 °F 72% 30.08 in 6 mi ENE 6.9 mph - -  
5:20 AM 48.2 °F - 42.8 °F 82% 30.06 in - ENE 8.1 mph - N/A   Clear
5:50 AM 46.4 °F 43.5 °F 44.6 °F 93% 30.06 in - ENE 5.8 mph - N/A   Clear
6:20 AM 46.4 °F 42.9 °F 42.8 °F 87% 30.06 in - NNE 6.9 mph - N/A   Clear
6:50 AM 46.4 °F 42.4 °F 41.0 °F 81% 30.06 in - ENE 8.1 mph - N/A   Clear
7:20 AM 46.4 °F 43.5 °F 42.8 °F 87% 30.06 in - ENE 5.8 mph - N/A   Clear
7:50 AM 50.0 °F - 44.6 °F 82% 30.06 in - ENE 5.8 mph - N/A   Clear
8:00 AM 50 °F - 44 °F 72% 30.08 in 6 mi ENE 5.8 mph - -  
8:20 AM 55.4 °F - 46.4 °F 72% 30.06 in - ENE 5.8 mph - N/A   Clear
8:50 AM 59.0 °F - 44.6 °F 59% 30.06 in - ENE 5.8 mph - N/A   Clear
9:20 AM 62.6 °F - 44.6 °F 52% 30.06 in - ENE 6.9 mph - N/A   Clear
9:50 AM 64.4 °F - 44.6 °F 49% 30.06 in - NE 5.8 mph - N/A   Clear
10:20 AM 68.0 °F - 44.6 °F 43% 30.06 in - NE 4.6 mph - N/A   Clear
10:50 AM 69.8 °F - 41.0 °F 35% 30.06 in - North 4.6 mph - N/A   Clear
11:00 AM 70 °F - 40 °F 22% 30.07 in 6 mi North 4.6 mph - -  
11:20 AM 71.6 °F - 41.0 °F 33% 30.04 in - Variable 2.3 mph - N/A   Clear
11:50 AM 73.4 °F - 41.0 °F 31% 30.04 in 6.2 mi Variable 2.3 mph - N/A   Partly Cloudy
12:20 PM 73.4 °F - 42.8 °F 33% 30.04 in 6.2 mi SW 6.9 mph - N/A   Partly Cloudy
12:50 PM 71.6 °F - 46.4 °F 41% 30.01 in 6.2 mi SW 8.1 mph - N/A   Partly Cloudy
1:20 PM 71.6 °F - 48.2 °F 43% 30.01 in 6.2 mi SSW 9.2 mph - N/A   Partly Cloudy
1:50 PM 71.6 °F - 44.6 °F 38% 30.01 in - SSW 9.2 mph - N/A   Clear
2:00 PM 72 °F - 49 °F 33% 30.02 in 6 mi SSW 9.2 mph - -  
2:20 PM 71.6 °F - 51.8 °F 50% 30.01 in - SSW 9.2 mph - N/A   Clear
2:50 PM 71.6 °F - 51.8 °F 50% 30.01 in - SSW 9.2 mph - N/A   Clear
3:20 PM 71.6 °F - 50.0 °F 46% 30.01 in - SSW 8.1 mph - N/A   Clear
3:50 PM 69.8 °F - 50.0 °F 49% 30.01 in - SW 8.1 mph - N/A   Clear
4:20 PM 68.0 °F - 53.6 °F 60% 30.01 in - SW 5.8 mph - N/A   Clear
4:50 PM 64.4 °F - 53.6 °F 68% 30.01 in - SSW 3.5 mph - N/A   Clear
5:00 PM 65 °F - 53 °F 55% 30.03 in 6 mi SSW 3.5 mph - -  
5:20 PM 62.6 °F - 51.8 °F 68% 30.01 in - SE 2.3 mph - N/A   Clear
5:50 PM 59.0 °F - 48.2 °F 67% 30.01 in - ESE 3.5 mph - N/A   Clear
6:20 PM 57.2 °F - 50.0 °F 77% 30.01 in - ESE 2.3 mph - N/A   Clear
6:50 PM 53.6 °F - 48.2 °F 82% 30.04 in - NNE 4.6 mph - N/A   Clear
7:20 PM 53.6 °F - 44.6 °F 72% 30.04 in - NNE 4.6 mph - N/A   Clear
7:50 PM 53.6 °F - 46.4 °F 77% 30.04 in - NNE 5.8 mph - N/A   Clear
8:00 PM 53 °F - 45 °F 66% 30.04 in 6 mi NNE 5.8 mph - -  
8:20 PM 53.6 °F - 44.6 °F 72% 30.04 in - NE 4.6 mph - N/A   Clear
8:50 PM 53.6 °F - 44.6 °F 72% 30.04 in - NE 4.6 mph - N/A   Clear
9:20 PM 51.8 °F - 42.8 °F 71% 30.04 in - NE 4.6 mph - N/A   Clear
9:50 PM 51.8 °F - 44.6 °F 76% 30.04 in - NE 3.5 mph - N/A   Clear
10:20 PM 51.8 °F - 44.6 °F 76% 30.04 in - East 5.8 mph - N/A   Clear
10:50 PM 53.6 °F - 44.6 °F 72% 30.04 in - East 5.8 mph - N/A   Clear
11:00 PM 53 °F - 44 °F 64% 30.05 in 6 mi East 5.8 mph - -   Clear
11:20 PM 48.2 °F - 44.6 °F 87% 30.04 in - ENE 5.8 mph - N/A   Clear
11:50 PM 50.0 °F - 44.6 °F 82% 30.01 in - NNE 6.9 mph - N/A   Clear